Home > Weather > Timișoara > Past weeks

Flag for Romania Weather for the Past 2 Weeks in Timișoara, Romania

Now
46 °F

Sunny.


Feels Like: 41 °F
Forecast: 38 / 57 °F
Wind: 12 mph from South

Location: Timisoara Airport

Current Time: Feb 13, 2016 at 6:25:36 PM

Latest Report: Feb 13, 2016 at 5:30 PM


Visibility: 10 mi

Pressure: 29.39 "Hg

Humidity: 87%

Dew point: 43 °F

Location of TimișoaraLocation

Historic Weather in Timișoara — Graph

°F

Timișoara Temperature Yesterday

Maximum temperature yesterday: 52 °F (at 2:30 PM)
Minimum temperature yesterday: 30 °F (at 2:00 AM)
Average temperature yesterday: 40 °F

High & Low Weather Summary for the Past Weeks

 TemperatureHumidityPressure
High63 °F (Feb 9, 3:00 PM)100% (Jan 29, 5:30 PM)30.48 "Hg (Jan 29, 5:30 PM)
Low23 °F (Feb 6, 3:00 AM)40% (Feb 11, 4:30 PM)29.24 "Hg (Feb 10, 1:30 PM)
Average42 °F85%30.00 "Hg
* Reported Jan 29 5:00 PM — Feb 13 5:00 PM, Timișoara, Weather by CustomWeather, © 2016

Note: Actual official high and low records may vary slightly from our data, if they occured in-between our weather recording intervals... More about our weather records

Advertising

Timișoara Weather History for the Previous 24 Hours

 ConditionsComfort  
Time TempWeatherWind HumidityBarometerVisibility
5:00 PM
Sat, Feb 13
46 °FPartly sunny.12 mph87%29.39 "HgN/A
4:30 PM46 °FPartly sunny.14 mph87%29.39 "HgN/A
4:00 PM46 °FPartly sunny.16 mph87%29.36 "HgN/A
3:30 PM48 °FScattered clouds.16 mph82%29.36 "HgN/A
3:00 PM48 °FPassing clouds.16 mph82%29.36 "HgN/A
2:30 PM48 °FPassing clouds.17 mph87%29.36 "HgN/A
2:00 PM46 °FScattered clouds.8 mph100%29.36 "HgN/A
1:30 PM46 °FLight rain. Partly sunny.9 mph100%29.36 "Hg6 mi
1:00 PM46 °FLight rain. Partly sunny.12 mph93%29.36 "Hg6 mi
12:30 PM46 °FLight rain. Partly sunny.12 mph93%29.36 "HgN/A
12:00 PM45 °FLight rain. Partly sunny.9 mph100%29.39 "Hg5 mi
11:30 AM45 °FLight rain. Scattered clouds.10 mph93%29.39 "Hg5 mi
11:00 AM45 °FLight rain. Clear.8 mph93%29.39 "HgN/A
10:30 AM45 °FLight rain. Clear.10 mph87%29.39 "HgN/A
10:00 AM43 °FLight rain. Clear.8 mph87%29.42 "HgN/A
9:30 AM43 °FSunny.8 mph76%29.42 "Hg10 mi
9:00 AM43 °FSunny.13 mph76%29.42 "Hg10 mi
8:30 AM41 °FSunny.10 mph81%29.45 "Hg10 mi
8:00 AM41 °FSunny.12 mph81%29.42 "Hg10 mi
7:30 AM39 °FClear.12 mph81%29.45 "Hg10 mi
7:00 AM39 °FClear.10 mph81%29.45 "Hg10 mi
6:30 AM39 °FClear.9 mph81%29.47 "Hg10 mi
6:00 AM37 °FClear.8 mph87%29.47 "Hg10 mi
5:30 AM37 °FClear.9 mph87%29.50 "Hg10 mi
5:00 AM37 °FClear.8 mph87%29.53 "Hg10 mi
4:30 AM37 °FClear.9 mph87%29.50 "Hg10 mi
4:00 AM37 °FClear.9 mph87%29.53 "Hg10 mi
3:30 AM37 °FClear.10 mph87%29.56 "Hg10 mi
2:30 AM37 °FClear.9 mph87%29.59 "Hg10 mi
2:00 AM39 °FClear.9 mph81%29.59 "Hg10 mi
1:30 AM37 °FClear.7 mph87%29.59 "Hg10 mi
1:00 AM37 °FClear.8 mph87%29.59 "Hg10 mi
12:00 AM39 °FClear.7 mph81%29.62 "Hg10 mi
11:30 PM
Fri, Feb 12
39 °FClear.8 mph81%29.65 "Hg10 mi
11:00 PM39 °FClear.9 mph81%29.65 "Hg10 mi
10:30 PM37 °FClear.10 mph81%29.65 "Hg10 mi
10:00 PM36 °FClear.9 mph87%29.68 "Hg10 mi
9:30 PM37 °FClear.12 mph87%29.68 "Hg10 mi
9:00 PM39 °FClear.10 mph81%29.68 "Hg10 mi
8:30 PM39 °FClear.9 mph81%29.71 "Hg10 mi
8:00 PM39 °FClear.8 mph81%29.71 "Hg10 mi
7:30 PM41 °FClear.8 mph70%29.71 "Hg10 mi
7:00 PM43 °FClear.7 mph71%29.74 "Hg10 mi
6:30 PM45 °FClear.8 mph61%29.74 "Hg10 mi
6:00 PM46 °FPassing clouds.12 mph57%29.74 "HgN/A
Weather by CustomWeather, © 2016

See weather overviewHow to use our weather pages